This demonstration page uses our WeatherBlox Daily Observations layout. Learn more.

Left ArrowRight Arrow

Hourly Observations for February 22, 2023

Temp ( °F °C ) Dew Point ( °F °C ) Humidity (%) Winds ( mph kmh ) Pressure ( in mb ) Visibility ( mi km ) Precip ( " mm )
12:55 am 00:55 Mostly Cloudy with Light Rain 40 4.4 35 1.7 83 83 E 10 17 29.47 998 10 16 0.01 0.25
1:55 am 01:55 Mostly Cloudy 41 5 35 1.7 79 79 E 9 15 29.45 997 10 16 0.01 0.13
2:55 am 02:55 Clear 41 5 35 1.7 79 79 E 8 13 29.44 997 10 16 0.00 0.00
3:55 am 03:55 Mostly Cloudy 42 5.6 35 1.7 76 76 E 9 15 29.44 997 10 16 0.00 0.00
4:55 am 04:55 Cloudy 42 5.6 35 1.7 76 76 E 12 19 29.44 997 10 16 0.01 0.13
5:55 am 05:55 Cloudy 41 5 36 2.2 82 82 NNE 7 11 29.49 999 10 16 0.00 0.00
6:55 am 06:55 Cloudy 41 5 36 2.2 82 82 ENE 9 15 29.46 998 10 16 0.01 0.25
7:55 am 07:55 Cloudy 41 5 37 2.8 86 86 E 13 20 29.46 998 10 16 0.00 0.00
8:55 am 08:55 Cloudy with Light Rain 42 5.6 38 3.3 85 85 ENE 7 11 29.48 998 7 11 0.01 0.25
9:13 am 09:13 Cloudy with Light Rain 41 5 39 3.9 93 93 ENE 8 13 29.50 999 6 10 0.02 0.51
9:23 am 09:23 Cloudy with Light Rain 41 5 39 3.9 93 93 NE 10 17 29.50 999 5 8 0.04 1.02
9:43 am 09:43 Cloudy with Rain 41 5 39 3.9 93 93 NNE 14 22 29.52 1000 2 3 0.13 3.30
9:51 am 09:51 Cloudy with Heavy Rain 41 5 39 4 93 93 NNE 9 15 29.53 1000 2 2 0.17 4.32
9:55 am 09:55 Cloudy with Heavy Rain 41 5 39 3.9 93 93 NE 10 17 29.52 1000 1 2 0.23 5.84
10:09 am 10:09 Cloudy with Rain 40 4.4 39 3.9 97 97 NE 8 13 29.51 999 3 5 0.06 1.52
10:20 am 10:20 Cloudy with Light Rain 40 4.4 39 3.9 97 97 NE 10 17 29.51 999 4 6 0.09 2.29
10:55 am 10:55 Cloudy with Light Rain 40 4.4 39 3.9 97 97 E 13 20 29.49 999 3 5 0.16 4.06
11:05 am 11:05 Cloudy with Light Rain 40 4.4 39 3.9 97 97 ENE 9 15 29.49 999 3 5 0.03 0.76
11:55 am 11:55 Cloudy with Light Rain 39 3.9 38 3.3 96 96 E 13 20 29.47 998 5 8 0.09 2.29
12:55 pm 12:55 Cloudy with Light Rain 40 4.4 39 3.9 97 97 ESE 9 15 29.46 998 4 6 0.15 3.81
1:07 pm 13:07 Cloudy with Rain 40 4.4 39 3.9 97 97 E 12 19 29.44 997 4 6 0.03 0.76
1:15 pm 13:15 Cloudy with Light Rain 40 4.4 39 3.9 97 97 E 13 20 29.44 997 4 6 0.06 1.52
1:25 pm 13:25 Cloudy with Light Rain 40 4.4 39 3.9 97 97 E 10 17 29.43 997 5 8 0.08 2.03
1:55 pm 13:55 Cloudy with Light Rain 41 5 40 4.4 96 96 ESE 14 22 29.40 996 5 8 0.14 3.56
2:55 pm 14:55 Cloudy 45 7.2 45 7.2 100 100 ESE 9 15 29.40 996 10 16 0.05 1.27
3:55 pm 15:55 Cloudy 48 8.9 47 8.3 96 96 ESE 7 11 29.44 997 10 16 0.00 0.00
4:04 pm 16:04 Cloudy 48 8.9 47 8.3 96 96 E 7 11 29.44 997 10 16 0.00 0.00
4:30 pm 16:30 Cloudy 48 8.9 47 8.3 96 96 E 5 7 29.44 997 10 16 0.00 0.00
4:55 pm 16:55 Cloudy 48 8.9 48 8.9 100 100 E 7 11 29.44 997 10 16 0.00 0.00
5:55 pm 17:55 Cloudy 49 9.4 48 8.9 97 97 SE 10 17 29.46 998 10 16 0.00 0.00
6:07 pm 18:07 Cloudy 49 9.4 48 8.9 97 97 SE 8 13 29.46 998 10 16 0.00 0.00
6:15 pm 18:15 Mostly Cloudy 48 8.9 48 8.9 100 100 ESE 9 15 29.45 997 10 16 0.00 0.00
6:55 pm 18:55 Mostly Cloudy 47 8.3 47 8.3 100 100 SE 7 11 29.48 998 7 11 0.00 0.00
7:18 pm 19:18 Partly Cloudy with Mist and Fog 47 8.3 46 7.8 97 97 SSE 8 13 29.48 998 2 3 0.00 0.00
7:26 pm 19:26 Mostly Cloudy with Mist and Fog 47 8.3 46 7.8 97 97 SSE 8 13 29.49 999 1 2 0.00 0.00
7:32 pm 19:32 Mostly Cloudy with Mist and Fog 46 7.8 46 7.8 100 100 SSE 7 11 29.49 999 1 1 0.00 0.00
7:40 pm 19:40 Mostly Cloudy with Fog 45 7.2 45 7.2 100 100 SSE 9 15 29.49 999 1 1 0.00 0.00
7:55 pm 19:55 Mostly Cloudy with Mist and Fog 48 8.9 47 8.3 96 96 SW 7 11 29.51 999 2 2 0.00 0.00
7:58 pm 19:58 Mostly Cloudy with Mist and Fog 48 8.9 48 8.9 100 100 WSW 6 9 29.50 999 4 6 0.00 0.00
8:06 pm 20:06 Mostly Cloudy 50 10 49 9.4 96 96 W 16 26 29.51 999 10 16 0.00 0.00
8:23 pm 20:23 Cloudy 47 8.3 46 7.8 97 97 W 15 24 29.54 1000 10 16 0.00 0.00
8:55 pm 20:55 Cloudy 42 5.6 41 5 96 96 W 15 24 29.58 1002 10 16 0.00 0.00
9:13 pm 21:13 Mostly Cloudy 42 5.6 38 3.3 85 85 W 15 24 29.60 1002 10 16 0.00 0.00
9:55 pm 21:55 Cloudy 40 4.4 37 2.8 89 89 W 14 22 29.63 1003 10 16 0.00 0.00
10:30 pm 22:30 Partly Cloudy 39 3.9 36 2.2 89 89 W 9 15 29.66 1005 9 14 0.00 0.00
10:55 pm 22:55 Partly Cloudy 39 3.9 36 2.2 89 89 WSW 6 9 29.67 1005 9 14 0.00 0.00
11:04 pm 23:04 Mostly Cloudy 38 3.3 36 2.2 92 92 SW 6 9 29.68 1005 9 14 0.00 0.00
11:43 pm 23:43 Partly Cloudy 37 2.8 34 1.1 89 89 W 7 11 29.69 1005 9 14 0.00 0.00
11:55 pm 23:55 Mostly Clear 36 2.2 34 1.1 92 92 W 7 11 29.67 1005 8 13 0.00 0.00

Powered by AerisWeather